Tracking 31027 objects as of 19-Jul-2025
HD Live streaming from Space Station
objects crossing your sky now

STARLINK-32046

Track STARLINK-32046 now!
10-day predictions
STARLINK-32046 is classified as:


NORAD ID: 60198
Int'l Code: 2024-124R
Perigee: 481.7 km
Apogee: 483.1 km
Inclination: 53.2 °
Period: 94.1 minutes
Semi major axis: 6853 km
RCS: Unknown
Launch date: July 3, 2024
Source: United States (US)
Launch site: AIR FORCE EASTERN TEST RANGE (AFETR)
Your satellite tracking list
COSMOS 2251 DEB
Track 1 satellite(s)




NASA's NSSDC Master Catalog

Two Line Element Set (TLE):
1 60198U 24124R   25199.52645633 -.00000224  00000-0  45615-5 0  9992
2 60198  53.1617 330.2063 0001003  90.1769 269.9347 15.30189060 59672
Source of the keplerian elements: AFSPC